SCP
0 0 0 0 0 0 0 0 0 0 0 0 0 0 0 0 0 0 0 0 0 0 0 0 0 0 0 0 0 0 0 0 0 0 0 0 0 0 0 0 0 0 0
0 0 0 0 0 0 0 0 0 0 0 0 0 0 0 0 0 0 0 0 0 0 0 0 0 0 0 0 0 0 0 0 0 0 0 0 0 0 0 0 0 0 0
0 0 0 0 0 0 0 0 0 0 0 0 0 0 0 0 0 0 0 0 0 0 0 0 0 0 0 0 0 0 0 0 0 0 0 0 0 0 0 0 0 0 0
0 0 0 0 0 0 0 0 0 0 0 0 0 0 0 0 0 0 0 0 0 0 0 0 0 0 0 0 0 0 0 0 0 0 0 0 0 0 0 0 0 0 0
0 0 0 0 0 0 0 0 0 0 0 0 0 0 0 0 0 0 0 0 0 0 0 0 0 0 0 0 0 0 0 0 0 0 0 0 0 0 0 0 0 0 0
1 0 0 0 0 0 0 0 0 0 0 0 0 0 0 0 0 0 0 0 0 0 0 0 0 0 0 0 0 0 0 0 0 0 0 0 0 0 0 0 0 0 0
1 0 0 0 0 0 0 0 0 0 0 0 0 0 0 0 0 0 0 0 0 0 0 0 0 0 0 0 0 0 0 0 0 0 0 0 0 0 0 0 0 0 0
1 0 0 0 0 0 0 0 0 0 0 0 0 0 0 0 0 0 0 0 0 0 0 0 0 0 0 0 0 0 0 0 0 0 0 0 0 0 0 0 0 0 0
1 0 0 0 0 0 0 0 0 0 0 0 0 0 0 0 0 0 0 0 0 0 0 0 0 0 0 0 0 0 0 0 0 0 0 0 0 0 0 0 0 0 0
1 0 0 0 0 0 0 0 0 0 0 0 0 0 0 0 0 0 0 0 0 0 0 0 0 0 0 0 0 0 0 0 0 0 0 0 0 0 0 0 0 0 0
0 0 0 0 0 0 0 0 0 0 0 0 0 0 0 0 0 0 0 0 0 0 0 0 0 0 0 0 0 0 0 0 0 0 0 0 0 0 0 0 0 0 0
0 0 0 0 0 0 0 0 0 0 0 0 0 0 0 0 0 0 0 0 0 0 0 0 0 0 0 0 0 0 0 0 0 0 0 0 0 0 0 0 0 0 0
0 0 0 0 0 0 0 0 0 0 0 0 0 0 0 0 0 0 0 0 0 0 0 0 0 0 0 0 0 0 0 0 0 0 0 0 0 0 0 0 0 0 0
0 0 0 0 0 0 0 0 0 0 0 0 0 0 0 0 0 0 0 0 0 0 0 0 0 0 0 0 0 0 0 0 0 0 0 0 0 0 0 0 0 0 0
0 0 0 0 0 0 0 0 0 0 0 0 0 0 0 0 0 0 0 0 0 0 0 0 0 0 0 0 0 0 0 0 0 0 0 0 0 0 0 0 0 0 0
0 0 0 0 0 0 0 0 0 0 0 0 0 0 0 0 0 0 0 0 0 0 0 0 0 0 0 0 0 0 0 0 0 0 0 0 0 0 0 0 0 0 0
0 0 0 0 0 0 0 0 0 0 0 0 0 0 0 0 0 0 0 0 0 0 0 0 0 0 0 0 0 0 0 0 0 0 0 0 0 0 0 0 0 0 0
0 0 0 0 0 0 0 0 0 0 0 0 0 0 0 0 0 0 0 0 0 0 0 0 0 0 0 0 0 0 0 0 0 0 0 0 0 0 0 0 0 0 0
0 0 0 0 0 0 0 0 0 0 0 0 0 0 0 0 0 0 0 0 0 0 0 0 0 0 0 0 0 0 0 0 0 0 0 0 0 0 0 0 0 0 0
0 0 0 0 0 0 0 0 0 0 0 0 0 0 0 0 0 0 0 0 0 0 0 0 0 0 0 0 0 0 0 0 0 0 0 0 0 0 0 0 0 0 0
0 0 0 0 0 0 0 0 0 0 0 0 0 0 0 0 0 0 0 0 0 0 0 0 0 0 0 0 0 0 0 0 0 0 0 0 0 0 0 0 0 0 0
0 0 0 0 0 0 0 0 0 0 0 0 0 0 0 0 0 0 0 0 0 0 0 0 0 0 0 0 0 0 0 0 0 0 0 0 0 0 0 0 0 0 0
0 0 0 0 0 0 0 0 0 0 0 0 0 0 0 0 0 0 0 0 0 0 0 0 0 0 0 0 0 0 0 0 0 0 0 0 0 0 0 0 0 0 0
0 0 0 0 0 0 0 0 0 0 0 0 0 0 0 0 0 0 0 0 0 0 0 0 0 0 0 0 0 0 0 0 0 0 0 0 0 0 0 0 0 0 0
0 0 0 0 0 0 0 0 0 0 0 0 0 0 0 0 0 0 0 0 0 0 0 0 0 0 0 0 0 0 0 0 0 0 0 0 0 0 0 0 0 0 0
0 0 0 0 0 0 0 0 0 0 0 0 0 0 0 0 0 0 0 0 0 0 0 0 0 0 0 0 0 0 0 0 0 0 0 0 0 0 0 0 0 0 0
Wind_Speed
9 9 7 7 7 6 6 7 6 5 6 6 6 6 6 5 5 5 5 5 6 6 5 6 6 5 4 4 4 4 5 4 5 4 2 2 2 3 2 3 4 4 4
9 8 7 6 6 7 7 6 6 6 6 6 6 6 6 6 6 6 7 7 7 7 7 6 7 5 6 5 5 5 5 5 5 5 3 2 3 3 2 3 3 3 3
8 8 7 6 7 7 7 6 6 6 5 5 5 6 6 6 6 6 7 7 7 7 7 7 7 6 7 5 6 6 5 5 5 5 4 3 2 2 2 2 2 2 3
7 7 7 7 7 6 6 5 6 6 6 6 5 6 6 5 6 6 6 6 6 7 7 7 7 8 8 7 6 6 5 5 5 4 4 3 3 2 2 2 2 2 2
7 7 7 6 5 5 5 5 5 5 6 5 5 5 5 5 5 6 6 6 6 6 6 7 7 8 8 7 6 5 5 5 4 4 4 3 3 2 3 2 3 2 2
7 7 6 5 5 5 5 4 4 4 4 4 4 4 4 4 5 7 6 5 5 6 6 6 6 7 8 9 9 8 7 6 6 5 4 5 5 4 3 3 3 2 3
6 5 5 5 5 4 4 4 4 4 4 4 4 4 4 4 5 6 6 4 4 4 5 4 4 4 5 5 6 6 6 7 8 6 6 6 5 5 4 4 4 4 4
5 5 4 5 5 4 4 4 3 3 3 3 3 3 2 2 3 4 4 3 3 3 3 3 4 3 3 3 3 3 3 3 4 4 4 4 4 4 4 4 3 3 2
5 5 5 5 5 5 4 3 3 3 2 2 1 1 1 1 1 2 2 2 1 2 2 2 3 3 3 2 2 2 2 2 1 1 1 0 1 1 1 2 2 2 2
4 4 4 4 5 5 4 3 2 2 2 2 2 1 1 1 2 0 1 1 1 1 0 1 1 1 1 2 2 2 2 1 0 1 2 2 2 2 2 1 2 2 2
4 4 4 4 4 4 4 3 3 3 3 3 2 1 2 2 2 2 2 1 1 1 1 1 2 2 2 1 2 2 1 1 1 1 1 2 2 2 2 1 0 1 2
5 5 4 4 3 3 4 3 3 4 4 3 2 2 2 2 3 3 3 3 2 2 1 1 2 3 4 3 2 3 3 3 2 3 2 2 2 2 1 1 1 1 0
6 6 5 5 4 4 4 4 3 3 3 2 2 1 1 2 3 4 4 3 3 2 2 4 4 4 4 4 4 4 3 3 3 3 2 2 2 2 2 2 2 2 2
7 6 5 5 5 5 4 3 3 3 2 2 2 2 2 2 2 2 3 3 3 3 2 4 6 6 5 5 5 4 3 3 3 2 2 2 2 2 3 2 2 2 2
7 6 6 5 6 6 6 5 4 4 2 2 2 2 2 2 2 3 3 3 2 2 3 3 4 4 4 4 4 4 3 3 3 2 2 2 2 2 2 2 2 2 2
6 5 5 4 5 5 6 7 11 8 10 9 7 5 4 5 6 7 7 7 6 6 5 4 4 3 3 3 3 3 3 3 2 2 2 2 2 2 2 2 2 2 2
7 6 5 4 5 4 4 5 5 8 11 12 11 10 8 8 9 8 7 8 8 8 6 4 4 4 4 4 3 3 3 3 2 2 2 2 2 2 2 2 2 2 2
7 7 6 5 4 4 4 4 4 5 5 6 8 10 10 9 9 8 7 8 7 6 5 4 4 4 4 4 4 4 3 3 3 3 3 3 2 2 2 2 2 3 2
6 5 5 5 5 5 5 5 5 6 6 5 5 6 8 8 10 10 8 6 6 5 5 4 4 4 4 4 4 4 4 4 4 3 3 3 3 3 3 2 2 3 3
6 9 8 6 6 6 6 6 6 6 6 5 5 4 4 6 6 7 6 6 5 5 4 4 4 4 4 4 4 3 4 4 4 4 4 4 3 3 3 3 3 3 3
6 8 10 7 6 6 6 6 5 6 6 6 5 6 6 6 6 6 5 5 4 4 4 4 4 4 4 4 3 4 4 4 4 4 4 4 3 3 3 3 3 3 3
6 6 6 6 6 6 6 6 6 6 6 7 5 6 8 6 5 5 5 5 4 4 4 4 4 4 4 4 3 3 4 4 4 4 3 3 3 3 3 3 4 4 4
7 8 7 7 6 8 7 6 6 6 6 6 5 5 5 5 5 6 6 5 5 5 5 5 5 5 5 4 4 3 3 3 3 3 3 3 3 3 3 3 4 4 4
8 8 8 7 7 7 7 6 6 6 6 6 5 5 5 6 6 6 6 5 5 6 6 5 5 7 8 6 4 4 4 4 3 2 2 2 2 2 2 3 3 4 4
8 8 7 7 7 6 6 6 6 6 6 6 6 6 6 6 6 6 5 5 6 6 7 6 5 6 7 8 7 6 6 6 4 3 2 2 2 3 3 3 3 4 4
8 8 7 6 6 6 6 6 6 6 6 5 5 5 5 5 5 5 5 5 5 5 6 6 7 8 8 7 8 8 6 6 5 5 3 2 3 3 3 3 4 4 4
Wind_Direction
190 198 199 196 197 194 199 204 200 198 200 203 203 203 207 211 207 207 216 216 220 226 224 222 230 219 220 218 210 209 211 206 232 252 233 246 242 245 247 230 231 231 239
190 190 196 192 187 194 204 204 196 199 203 204 199 202 211 214 211 212 221 222 223 228 228 228 235 227 225 223 215 218 217 210 218 243 240 232 235 233 235 240 242 233 232
181 184 189 190 192 198 203 200 197 200 204 203 199 206 215 217 216 220 224 226 226 229 228 227 232 226 231 228 222 225 224 218 216 228 241 227 237 232 230 238 238 250 243
176 184 192 197 198 200 197 195 197 198 201 203 204 208 216 220 222 225 227 231 234 237 235 233 233 227 230 229 228 228 225 221 218 225 239 240 237 231 215 239 255 241 254
175 187 198 194 189 189 190 194 195 197 202 202 203 212 218 221 228 227 229 233 235 240 242 240 238 234 229 224 226 224 220 221 222 225 236 239 237 221 223 223 242 253 251
176 189 188 181 181 183 187 189 190 194 197 198 204 212 220 232 236 228 228 235 238 240 247 250 248 240 236 229 227 223 217 221 226 227 231 233 238 229 220 217 223 235 255
171 178 177 174 178 183 181 182 190 191 189 199 204 208 226 242 237 233 232 232 238 242 245 250 258 256 240 236 232 228 227 230 224 223 228 231 233 225 211 214 216 220 239
164 169 172 174 178 171 166 173 182 180 184 196 202 207 225 255 245 236 226 222 237 251 254 254 259 265 256 228 221 231 237 244 234 222 227 238 243 234 213 216 217 219 240
160 167 172 171 167 160 166 172 169 162 174 189 173 171 209 280 282 259 222 200 209 254 270 278 267 265 273 202 196 218 244 271 280 171 174 237 329 322 199 182 199 211 252
160 159 152 151 155 158 160 153 143 141 143 123 108 114 124 332 358 18 159 175 191 223 311 343 342 280 295 187 194 193 213 256 170 79 75 30 14 19 49 198 216 218 237
138 128 120 126 139 140 134 131 127 125 118 114 109 78 65 36 28 47 85 117 142 123 53 355 1 39 51 93 144 140 168 150 109 95 82 53 35 34 34 25 276 209 221
122 118 114 112 114 113 115 117 119 124 121 121 104 73 53 41 41 50 73 82 101 105 91 39 34 49 58 62 85 81 85 87 77 74 69 49 32 15 5 17 45 75 100
112 109 106 99 91 94 103 108 107 112 119 116 108 94 55 45 42 45 66 77 82 93 81 70 53 52 66 67 62 65 75 82 83 74 61 32 11 6 18 25 28 40 44
108 103 101 98 88 78 74 75 87 95 112 112 111 105 80 56 43 39 48 60 70 81 76 66 62 57 60 57 52 54 62 71 88 87 69 33 25 28 25 15 7 2 12
103 102 99 94 92 82 72 56 65 59 63 101 104 106 99 72 31 47 69 61 63 90 88 70 60 57 57 53 53 52 55 60 62 56 57 44 33 30 16 8 6 10 8
107 100 94 94 92 92 92 75 59 67 62 64 69 84 74 77 71 69 65 57 56 75 83 69 60 56 56 56 54 49 47 46 41 45 49 43 34 25 17 16 14 6 357
110 107 102 99 96 96 99 103 92 68 61 58 58 65 73 69 66 65 66 68 60 73 75 64 58 52 48 45 44 46 41 32 35 45 44 36 30 23 20 17 14 10 3
99 98 100 99 99 96 93 93 95 95 82 60 50 55 61 63 61 59 67 76 64 60 62 60 55 50 49 47 42 37 32 30 35 37 36 30 26 25 26 22 16 6 359
98 99 100 99 96 94 93 89 88 88 86 78 66 52 52 61 60 52 58 67 70 64 60 56 51 49 46 47 45 40 37 35 31 31 32 31 27 29 27 18 12 9 9
95 98 99 101 98 95 92 91 90 88 85 77 64 50 45 59 60 52 54 59 63 61 58 56 49 49 47 47 45 42 41 38 33 33 29 26 24 28 26 18 16 12 6
94 95 94 94 93 94 93 92 90 87 83 76 64 48 54 69 66 59 56 55 57 55 53 53 51 49 46 43 43 41 41 34 27 26 22 15 17 23 21 17 12 8 359
94 91 90 90 90 90 90 89 89 88 87 83 72 61 58 65 63 60 54 49 49 50 51 57 55 46 40 37 34 36 36 30 22 17 12 7 8 13 15 16 15 11 7
93 93 90 87 88 88 86 86 87 88 85 81 77 71 64 64 65 63 58 53 51 51 50 54 53 44 37 34 30 28 27 17 3 356 356 359 6 11 11 11 11 11 11
93 94 94 91 89 88 88 87 85 83 82 80 77 74 70 68 67 64 58 54 52 49 47 48 49 46 40 34 29 25 19 6 357 358 2 5 10 11 12 12 12 10 7
93 94 94 93 93 93 91 87 84 82 79 77 78 77 74 71 68 63 56 54 54 51 48 45 42 40 39 36 30 23 12 9 6 1 6 13 16 11 9 9 8 6 4
90 91 91 90 90 91 92 90 86 84 81 78 78 79 77 74 69 64 58 54 53 49 46 43 39 37 33 31 27 21 16 13 10 2 0 19 21 16 10 6 5 4 4